Tracking 31033 objects as of 14-Jul-2025
HD Live streaming from Space Station
objects crossing your sky now

IRIDIUM 121

Track IRIDIUM 121 now!
10-day predictions
IRIDIUM 121 is classified as:


NORAD ID: 42812
Int'l Code: 2017-039K
Perigee: 783.2 km
Apogee: 786.4 km
Inclination: 86.4 °
Period: 100.4 minutes
Semi major axis: 7155 km
RCS: Unknown
Launch date: June 25, 2017
Source: United States (US)
Launch site: AIR FORCE WESTERN TEST RANGE (AFWTR)
Your satellite tracking list
Your tracking list is empty




NASA's NSSDC Master Catalog

Two Line Element Set (TLE):
1 42812U 17039K   25195.55781173  .00000086  00000-0  23549-4 0  9997
2 42812  86.4000 134.8209 0002209  86.9490 273.1959 14.34218123421432
Source of the keplerian elements: AFSPC